Time,TemperatureF,DewpointF,PressureIn,WindDirection,WindDirectionDegrees,WindSpeedMPH,WindSpeedGustMPH,Humidity,HourlyPrecipIn,Conditions,Clouds,dailyrainin,SoftwareType,DateUTC
2013-03-12 00:00:00,30.6,25.2,29.28,West,271,4.0,6.0,80,0.00,,,0.01,meteohub,2013-03-12 05:00:00,
2013-03-12 00:05:00,30.6,25.2,29.28,West,276,1.0,7.0,80,0.00,,,0.01,meteohub,2013-03-12 05:05:00,
2013-03-12 00:10:00,30.4,25.0,29.28,West,280,2.0,7.0,80,0.00,,,0.01,meteohub,2013-03-12 05:10:00,
2013-03-12 00:15:00,30.4,25.3,29.29,West,271,6.0,7.0,81,0.00,,,0.01,meteohub,2013-03-12 05:15:00,
2013-03-12 00:20:00,30.4,25.3,29.29,West,259,2.0,7.0,81,0.00,,,0.01,meteohub,2013-03-12 05:20:00,
2013-03-12 00:26:00,30.2,25.2,29.29,WNW,285,3.0,9.0,81,0.00,,,0.01,meteohub,2013-03-12 05:26:00,
2013-03-12 00:31:00,30.0,25.0,29.29,WNW,294,3.0,9.0,81,0.00,,,0.01,meteohub,2013-03-12 05:31:00,
2013-03-12 00:36:00,30.0,25.0,29.30,NW,305,3.0,9.0,81,0.00,,,0.01,meteohub,2013-03-12 05:36:00,
2013-03-12 00:41:00,29.8,24.8,29.30,West,271,2.0,5.0,81,0.00,,,0.01,meteohub,2013-03-12 05:41:00,
2013-03-12 00:46:00,29.8,25.0,29.30,WNW,292,2.0,6.0,82,0.00,,,0.01,meteohub,2013-03-12 05:46:00,
2013-03-12 00:51:00,29.8,25.0,29.30,NW,304,2.0,9.0,82,0.00,,,0.01,meteohub,2013-03-12 05:51:00,
2013-03-12 00:56:00,29.7,24.8,29.31,WNW,287,5.0,9.0,82,0.00,,,0.01,meteohub,2013-03-12 05:56:00,
2013-03-12 01:01:00,29.7,24.8,29.31,NW,313,3.0,9.0,82,0.00,,,0.01,meteohub,2013-03-12 06:01:00,
2013-03-12 01:06:00,29.7,24.8,29.31,NW,311,1.0,11.0,82,0.00,,,0.01,meteohub,2013-03-12 06:06:00,
2013-03-12 01:11:00,29.5,24.4,29.31,NW,311,3.0,11.0,81,0.00,,,0.01,meteohub,2013-03-12 06:11:00,
2013-03-12 01:16:00,29.5,24.4,29.31,NNW,333,3.0,11.0,81,0.00,,,0.01,meteohub,2013-03-12 06:16:00,
2013-03-12 01:21:00,29.3,23.9,29.31,NW,315,3.0,9.0,80,0.00,,,0.01,meteohub,2013-03-12 06:21:00,
2013-03-12 01:27:00,29.1,23.7,29.32,North,355,2.0,10.0,80,0.00,,,0.01,meteohub,2013-03-12 06:27:00,
2013-03-12 01:32:00,29.1,23.7,29.33,North,5,3.0,10.0,80,0.00,,,0.01,meteohub,2013-03-12 06:32:00,
2013-03-12 01:37:00,28.9,23.5,29.33,WNW,295,5.0,10.0,80,0.00,,,0.01,meteohub,2013-03-12 06:37:00,
2013-03-12 01:42:00,28.9,23.2,29.33,NNW,329,5.0,10.0,79,0.00,,,0.01,meteohub,2013-03-12 06:42:00,
2013-03-12 01:47:00,28.8,23.0,29.34,NNW,346,6.0,10.0,79,0.00,,,0.01,meteohub,2013-03-12 06:47:00,
2013-03-12 01:52:00,28.8,23.0,29.33,NW,311,5.0,13.0,79,0.00,,,0.01,meteohub,2013-03-12 06:52:00,
2013-03-12 01:57:00,28.8,22.8,29.33,NW,323,4.0,13.0,78,0.00,,,0.01,meteohub,2013-03-12 06:57:00,
2013-03-12 02:02:00,28.6,22.8,29.33,WNW,296,2.0,13.0,79,0.00,,,0.01,meteohub,2013-03-12 07:02:00,
2013-03-12 02:07:00,28.6,22.8,29.33,NW,324,1.0,12.0,79,0.00,,,0.01,meteohub,2013-03-12 07:07:00,
2013-03-12 02:12:00,28.4,22.6,29.33,WNW,298,1.0,12.0,79,0.00,,,0.01,meteohub,2013-03-12 07:12:00,
2013-03-12 02:17:00,28.2,22.6,29.33,NW,319,2.0,9.0,79,0.00,,,0.01,meteohub,2013-03-12 07:17:00,
2013-03-12 02:22:00,28.2,22.6,29.33,NW,319,2.0,7.0,79,0.00,,,0.01,meteohub,2013-03-12 07:22:00,
2013-03-12 02:27:00,28.0,22.5,29.33,NW,319,3.0,7.0,79,0.00,,,0.01,meteohub,2013-03-12 07:27:00,
2013-03-12 02:32:00,28.0,22.5,29.33,NW,319,0.0,6.0,79,0.00,,,0.01,meteohub,2013-03-12 07:32:00,
2013-03-12 02:37:00,28.0,22.5,29.33,NW,319,1.0,4.0,79,0.00,,,0.01,meteohub,2013-03-12 07:37:00,
2013-03-12 02:42:00,27.9,22.3,29.34,NW,319,0.0,4.0,79,0.00,,,0.01,meteohub,2013-03-12 07:42:00,
2013-03-12 02:47:00,27.9,22.3,29.34,NW,319,0.0,4.0,79,0.00,,,0.01,meteohub,2013-03-12 07:47:00,
2013-03-12 02:52:00,27.7,22.1,29.34,NW,319,1.0,4.0,79,0.00,,,0.01,meteohub,2013-03-12 07:52:00,
2013-03-12 02:58:00,27.7,22.3,29.34,NW,319,1.0,4.0,80,0.00,,,0.01,meteohub,2013-03-12 07:58:00,
2013-03-12 03:03:00,27.5,22.1,29.33,NW,319,0.0,4.0,80,0.00,,,0.01,meteohub,2013-03-12 08:03:00,
2013-03-12 03:08:00,27.3,21.9,29.33,NW,319,1.0,4.0,80,0.00,,,0.01,meteohub,2013-03-12 08:08:00,
2013-03-12 03:13:00,27.3,22.3,29.33,NW,319,0.0,3.0,81,0.00,,,0.01,meteohub,2013-03-12 08:13:00,
2013-03-12 03:18:00,27.1,22.1,29.33,NW,319,3.0,3.0,81,0.00,,,0.01,meteohub,2013-03-12 08:18:00,
2013-03-12 03:23:00,27.1,22.5,29.33,NW,319,2.0,3.0,82,0.00,,,0.01,meteohub,2013-03-12 08:23:00,
2013-03-12 03:28:00,27.0,22.3,29.33,NW,319,1.0,4.0,82,0.00,,,0.01,meteohub,2013-03-12 08:28:00,
2013-03-12 03:33:00,27.0,22.3,29.32,NW,319,0.0,4.0,82,0.00,,,0.01,meteohub,2013-03-12 08:33:00,
2013-03-12 03:38:00,27.0,22.3,29.32,NW,318,3.0,4.0,82,0.00,,,0.01,meteohub,2013-03-12 08:38:00,
2013-03-12 03:43:00,26.8,22.3,29.33,NW,318,2.0,4.0,83,0.00,,,0.01,meteohub,2013-03-12 08:43:00,
2013-03-12 03:48:00,26.8,22.3,29.33,NW,309,1.0,5.0,83,0.00,,,0.01,meteohub,2013-03-12 08:48:00,
2013-03-12 03:53:00,26.6,22.1,29.32,NW,308,1.0,5.0,83,0.00,,,0.01,meteohub,2013-03-12 08:53:00,
2013-03-12 03:58:00,26.6,22.1,29.32,NW,308,5.0,5.0,83,0.00,,,0.01,meteohub,2013-03-12 08:58:00,
2013-03-12 04:03:00,26.6,22.1,29.33,WNW,292,3.0,5.0,83,0.00,,,0.01,meteohub,2013-03-12 09:03:00,
2013-03-12 04:08:00,26.6,22.1,29.33,West,269,5.0,7.0,83,0.00,,,0.01,meteohub,2013-03-12 09:08:00,
2013-03-12 04:13:00,26.4,22.3,29.33,West,275,3.0,7.0,84,0.00,,,0.01,meteohub,2013-03-12 09:13:00,
2013-03-12 04:18:00,26.4,22.3,29.33,West,281,3.0,7.0,84,0.00,,,0.01,meteohub,2013-03-12 09:18:00,
2013-03-12 04:23:00,26.4,22.3,29.33,WNW,293,1.0,7.0,84,0.00,,,0.01,meteohub,2013-03-12 09:23:00,
2013-03-12 04:28:00,26.4,21.9,29.34,West,267,3.0,7.0,83,0.00,,,0.01,meteohub,2013-03-12 09:28:00,
2013-03-12 04:33:00,26.4,21.9,29.33,West,277,3.0,7.0,83,0.00,,,0.01,meteohub,2013-03-12 09:33:00,
2013-03-12 04:38:00,26.4,21.9,29.33,West,263,3.0,5.0,83,0.00,,,0.01,meteohub,2013-03-12 09:38:00,
2013-03-12 04:43:00,26.2,21.7,29.33,WSW,248,3.0,5.0,83,0.00,,,0.01,meteohub,2013-03-12 09:43:00,
2013-03-12 04:49:00,26.2,21.7,29.33,WSW,258,2.0,5.0,83,0.00,,,0.01,meteohub,2013-03-12 09:49:00,
2013-03-12 04:54:00,26.2,22.1,29.33,WSW,253,2.0,5.0,84,0.00,,,0.01,meteohub,2013-03-12 09:54:00,
2013-03-12 04:59:00,26.2,22.1,29.33,West,265,0.0,5.0,84,0.00,,,0.01,meteohub,2013-03-12 09:59:00,
2013-03-12 05:04:00,26.2,21.7,29.32,West,264,2.0,5.0,83,0.00,,,0.01,meteohub,2013-03-12 10:04:00,
2013-03-12 05:09:00,26.1,21.6,29.32,West,263,1.0,5.0,83,0.00,,,0.01,meteohub,2013-03-12 10:09:00,
2013-03-12 05:14:00,26.1,21.9,29.33,West,263,0.0,4.0,84,0.00,,,0.01,meteohub,2013-03-12 10:14:00,
2013-03-12 05:19:00,26.1,21.9,29.34,West,262,2.0,4.0,84,0.00,,,0.01,meteohub,2013-03-12 10:19:00,
2013-03-12 05:24:00,25.9,21.7,29.33,West,262,0.0,4.0,84,0.00,,,0.01,meteohub,2013-03-12 10:24:00,
2013-03-12 05:29:00,25.9,21.7,29.34,West,259,0.0,3.0,84,0.00,,,0.01,meteohub,2013-03-12 10:29:00,
2013-03-12 05:34:00,25.9,21.7,29.35,WSW,242,4.0,4.0,84,0.00,,,0.01,meteohub,2013-03-12 10:34:00,
2013-03-12 05:39:00,25.7,21.7,29.34,WSW,241,0.0,5.0,85,0.00,,,0.01,meteohub,2013-03-12 10:39:00,
2013-03-12 05:44:00,25.7,21.7,29.34,WSW,242,0.0,5.0,85,0.00,,,0.01,meteohub,2013-03-12 10:44:00,
2013-03-12 05:49:00,25.7,21.7,29.34,WSW,239,0.0,5.0,85,0.00,,,0.01,meteohub,2013-03-12 10:49:00,
2013-03-12 05:54:00,25.5,21.9,29.35,WSW,239,2.0,4.0,86,0.00,,,0.01,meteohub,2013-03-12 10:54:00,
2013-03-12 05:59:00,25.5,21.9,29.35,SW,236,1.0,4.0,86,0.00,,,0.01,meteohub,2013-03-12 10:59:00,
2013-03-12 06:04:00,25.5,21.9,29.35,WSW,248,3.0,4.0,86,0.00,,,0.01,meteohub,2013-03-12 11:04:00,
2013-03-12 06:09:00,25.5,21.9,29.36,WSW,242,4.0,4.0,86,0.00,,,0.01,meteohub,2013-03-12 11:09:00,
2013-03-12 06:14:00,25.5,21.9,29.36,WSW,257,4.0,6.0,86,0.00,,,0.01,meteohub,2013-03-12 11:14:00,
2013-03-12 06:19:00,25.5,21.9,29.36,West,259,6.0,6.0,86,0.00,,,0.01,meteohub,2013-03-12 11:19:00,
2013-03-12 06:24:00,25.5,21.9,29.35,WSW,254,1.0,6.0,86,0.00,,,0.01,meteohub,2013-03-12 11:24:00,
2013-03-12 06:29:00,25.5,22.3,29.35,WSW,247,3.0,7.0,87,0.00,,,0.01,meteohub,2013-03-12 11:29:00,
2013-03-12 06:34:00,25.5,22.3,29.36,WSW,243,6.0,7.0,87,0.00,,,0.01,meteohub,2013-03-12 11:34:00,
2013-03-12 06:39:00,25.5,22.3,29.36,WSW,249,3.0,7.0,87,0.00,,,0.01,meteohub,2013-03-12 11:39:00,
2013-03-12 06:44:00,25.5,22.3,29.36,WSW,244,4.0,7.0,87,0.00,,,0.01,meteohub,2013-03-12 11:44:00,
2013-03-12 06:49:00,25.5,22.3,29.37,SW,232,4.0,7.0,87,0.00,,,0.01,meteohub,2013-03-12 11:49:00,
2013-03-12 06:54:00,25.7,22.5,29.37,WSW,240,3.0,9.0,87,0.00,,,0.01,meteohub,2013-03-12 11:54:00,
2013-03-12 06:59:00,25.7,22.5,29.38,West,261,9.0,10.0,87,0.00,,,0.01,meteohub,2013-03-12 11:59:00,
2013-03-12 07:04:00,25.9,22.5,29.37,West,274,3.0,10.0,87,0.00,,,0.01,meteohub,2013-03-12 12:04:00,
2013-03-12 07:09:00,25.9,22.5,29.37,West,267,2.0,10.0,87,0.00,,,0.01,meteohub,2013-03-12 12:09:00,
2013-03-12 07:14:00,25.9,22.5,29.37,West,264,5.0,11.0,87,0.00,,,0.01,meteohub,2013-03-12 12:14:00,
2013-03-12 07:19:00,25.9,22.5,29.36,West,261,3.0,11.0,87,0.00,,,0.01,meteohub,2013-03-12 12:19:00,
2013-03-12 07:24:00,25.9,22.5,29.37,WSW,248,4.0,11.0,87,0.00,,,0.01,meteohub,2013-03-12 12:24:00,
2013-03-12 07:29:00,26.1,22.6,29.37,WSW,242,3.0,9.0,87,0.00,,,0.01,meteohub,2013-03-12 12:29:00,
2013-03-12 07:34:00,26.1,22.6,29.38,SW,236,4.0,9.0,87,0.00,,,0.01,meteohub,2013-03-12 12:34:00,
2013-03-12 07:39:00,26.1,22.6,29.39,SW,228,5.0,10.0,87,0.00,,,0.01,meteohub,2013-03-12 12:39:00,
2013-03-12 07:45:00,26.2,22.8,29.39,WSW,241,5.0,10.0,87,0.00,,,0.01,meteohub,2013-03-12 12:45:00,
2013-03-12 07:50:00,26.2,23.2,29.39,WSW,242,6.0,10.0,88,0.00,,,0.01,meteohub,2013-03-12 12:50:00,
2013-03-12 07:55:00,26.4,23.4,29.39,WSW,257,6.0,12.0,88,0.00,,,0.01,meteohub,2013-03-12 12:55:00,
2013-03-12 08:00:00,26.8,23.4,29.39,WSW,248,4.0,13.0,87,0.00,,,0.01,meteohub,2013-03-12 13:00:00,
2013-03-12 08:05:00,26.8,23.4,29.39,WSW,246,10.0,13.0,87,0.00,,,0.01,meteohub,2013-03-12 13:05:00,
2013-03-12 08:10:00,27.0,23.5,29.39,WSW,245,4.0,14.0,87,0.00,,,0.01,meteohub,2013-03-12 13:10:00,
2013-03-12 08:15:00,27.1,23.7,29.39,West,263,5.0,14.0,87,0.00,,,0.01,meteohub,2013-03-12 13:15:00,
2013-03-12 08:20:00,27.5,24.1,29.39,WSW,243,0.0,14.0,87,0.00,,,0.01,meteohub,2013-03-12 13:20:00,
2013-03-12 08:25:00,27.9,24.3,29.39,West,259,0.0,12.0,86,0.00,,,0.01,meteohub,2013-03-12 13:25:00,
2013-03-12 08:30:00,28.0,24.4,29.39,West,273,3.0,12.0,86,0.00,,,0.01,meteohub,2013-03-12 13:30:00,
2013-03-12 08:35:00,28.4,24.4,29.39,WSW,253,6.0,11.0,85,0.00,,,0.01,meteohub,2013-03-12 13:35:00,
2013-03-12 08:40:00,28.8,24.8,29.39,WSW,254,1.0,13.0,85,0.00,,,0.01,meteohub,2013-03-12 13:40:00,
2013-03-12 08:45:00,28.9,25.0,29.39,WNW,285,4.0,13.0,85,0.00,,,0.01,meteohub,2013-03-12 13:45:00,
2013-03-12 08:50:00,29.3,24.8,29.39,West,271,5.0,13.0,83,0.00,,,0.01,meteohub,2013-03-12 13:50:00,
2013-03-12 08:55:00,29.5,24.6,29.39,WSW,244,3.0,12.0,82,0.00,,,0.01,meteohub,2013-03-12 13:55:00,
2013-03-12 09:00:00,29.7,24.8,29.39,West,271,7.0,14.0,82,0.00,,,0.01,meteohub,2013-03-12 14:00:00,
2013-03-12 09:05:00,29.8,24.8,29.39,West,275,5.0,14.0,81,0.00,,,0.01,meteohub,2013-03-12 14:05:00,
2013-03-12 09:10:00,30.0,25.0,29.39,SW,227,5.0,14.0,81,0.00,,,0.01,meteohub,2013-03-12 14:10:00,
2013-03-12 09:15:00,30.4,25.0,29.39,WSW,246,10.0,13.0,80,0.00,,,0.01,meteohub,2013-03-12 14:15:00,
2013-03-12 09:20:00,30.6,24.8,29.39,WSW,239,3.0,13.0,79,0.00,,,0.01,meteohub,2013-03-12 14:20:00,
2013-03-12 09:25:00,30.7,25.0,29.39,WNW,294,6.0,13.0,79,0.00,,,0.01,meteohub,2013-03-12 14:25:00,
2013-03-12 09:30:00,31.1,25.3,29.39,NW,319,6.0,12.0,79,0.00,,,0.01,meteohub,2013-03-12 14:30:00,
2013-03-12 09:35:00,31.5,25.3,29.39,West,261,5.0,11.0,78,0.00,,,0.01,meteohub,2013-03-12 14:35:00,
2013-03-12 09:40:00,31.8,26.1,29.39,WSW,252,6.0,11.0,79,0.00,,,0.01,meteohub,2013-03-12 14:40:00,
2013-03-12 09:45:00,32.2,26.1,29.39,WSW,240,7.0,12.0,78,0.00,,,0.01,meteohub,2013-03-12 14:45:00,
2013-03-12 09:50:00,32.4,25.9,29.40,West,275,1.0,12.0,77,0.00,,,0.01,meteohub,2013-03-12 14:50:00,
2013-03-12 09:55:00,32.7,26.1,29.41,West,269,1.0,12.0,76,0.00,,,0.01,meteohub,2013-03-12 14:55:00,
2013-03-12 10:00:00,33.3,26.6,29.41,WSW,246,4.0,14.0,76,0.00,,,0.01,meteohub,2013-03-12 15:00:00,
2013-03-12 10:05:00,33.4,26.1,29.41,WSW,243,7.0,14.0,74,0.00,,,0.01,meteohub,2013-03-12 15:05:00,
2013-03-12 10:10:00,33.8,26.8,29.41,WSW,257,5.0,14.0,75,0.00,,,0.01,meteohub,2013-03-12 15:10:00,
2013-03-12 10:16:00,34.2,26.4,29.40,WSW,244,6.0,13.0,73,0.00,,,0.01,meteohub,2013-03-12 15:16:00,
2013-03-12 10:21:00,34.3,26.2,29.40,West,264,7.0,12.0,72,0.00,,,0.01,meteohub,2013-03-12 15:21:00,
2013-03-12 10:26:00,34.5,26.4,29.41,West,266,4.0,12.0,72,0.01,,,0.02,meteohub,2013-03-12 15:26:00,
2013-03-12 10:31:00,34.9,26.8,29.41,West,259,5.0,12.0,72,0.01,,,0.02,meteohub,2013-03-12 15:31:00,
2013-03-12 10:36:00,35.1,26.6,29.41,West,271,0.0,15.0,71,0.01,,,0.02,meteohub,2013-03-12 15:36:00,
2013-03-12 10:41:00,35.2,26.8,29.41,West,277,0.0,15.0,71,0.01,,,0.02,meteohub,2013-03-12 15:41:00,
2013-03-12 10:46:00,35.8,27.0,29.41,WSW,256,10.0,12.0,70,0.01,,,0.02,meteohub,2013-03-12 15:46:00,
2013-03-12 10:52:00,36.0,26.8,29.41,West,261,6.0,13.0,69,0.01,,,0.02,meteohub,2013-03-12 15:52:00,
2013-03-12 10:57:00,36.3,27.1,29.41,WNW,297,5.0,13.0,69,0.01,,,0.02,meteohub,2013-03-12 15:57:00,
2013-03-12 11:02:00,36.9,27.0,29.42,WNW,296,4.0,12.0,67,0.01,,,0.02,meteohub,2013-03-12 16:02:00,
2013-03-12 11:07:00,36.9,27.0,29.42,WNW,294,2.0,12.0,67,0.01,,,0.02,meteohub,2013-03-12 16:07:00,
2013-03-12 11:12:00,37.0,27.5,29.42,WNW,294,9.0,12.0,68,0.01,,,0.02,meteohub,2013-03-12 16:12:00,
2013-03-12 11:17:00,37.2,27.3,29.42,West,272,3.0,11.0,67,0.01,,,0.02,meteohub,2013-03-12 16:17:00,
2013-03-12 11:22:00,37.4,27.5,29.42,WSW,257,4.0,17.0,67,0.00,,,0.02,meteohub,2013-03-12 16:22:00,
2013-03-12 11:27:00,37.8,28.2,29.42,SW,231,6.0,17.0,68,0.00,,,0.02,meteohub,2013-03-12 16:27:00,
2013-03-12 11:32:00,38.1,28.6,29.42,WSW,257,12.0,13.0,68,0.00,,,0.02,meteohub,2013-03-12 16:32:00,
2013-03-12 11:37:00,38.3,27.9,29.42,WSW,244,8.0,13.0,66,0.00,,,0.02,meteohub,2013-03-12 16:37:00,
2013-03-12 11:42:00,38.3,27.9,29.42,SW,226,10.0,14.0,66,0.00,,,0.02,meteohub,2013-03-12 16:42:00,
2013-03-12 11:48:00,38.7,28.2,29.42,West,265,9.0,15.0,66,0.00,,,0.02,meteohub,2013-03-12 16:48:00,
2013-03-12 11:53:00,38.7,27.5,29.42,West,266,1.0,15.0,64,0.00,,,0.02,meteohub,2013-03-12 16:53:00,
2013-03-12 11:58:00,38.5,27.3,29.42,WNW,287,4.0,17.0,64,0.00,,,0.02,meteohub,2013-03-12 16:58:00,
2013-03-12 12:03:00,38.7,28.6,29.42,West,276,9.0,17.0,67,0.00,,,0.02,meteohub,2013-03-12 17:03:00,
2013-03-12 12:08:00,38.8,28.4,29.42,West,264,5.0,14.0,66,0.00,,,0.02,meteohub,2013-03-12 17:08:00,
2013-03-12 12:13:00,39.2,28.8,29.42,WSW,252,5.0,18.0,66,0.00,,,0.02,meteohub,2013-03-12 17:13:00,
2013-03-12 12:18:00,39.6,29.1,29.42,South,180,7.0,18.0,66,0.00,,,0.02,meteohub,2013-03-12 17:18:00,
2013-03-12 12:23:00,39.7,28.9,29.41,West,273,11.0,18.0,65,0.00,,,0.02,meteohub,2013-03-12 17:23:00,
2013-03-12 12:28:00,39.6,28.8,29.41,WNW,294,10.0,18.0,65,0.00,,,0.02,meteohub,2013-03-12 17:28:00,
2013-03-12 12:33:00,40.1,28.9,29.41,WSW,258,11.0,18.0,64,0.01,,,0.03,meteohub,2013-03-12 17:33:00,
2013-03-12 12:38:00,40.5,28.4,29.41,West,263,12.0,18.0,62,0.01,,,0.03,meteohub,2013-03-12 17:38:00,
2013-03-12 12:44:00,40.8,28.8,29.41,WNW,282,12.0,17.0,62,0.01,,,0.03,meteohub,2013-03-12 17:44:00,
2013-03-12 12:49:00,40.6,28.6,29.41,West,266,14.0,20.0,62,0.02,,,0.04,meteohub,2013-03-12 17:49:00,
2013-03-12 12:54:00,41.2,29.5,29.41,WSW,250,11.0,21.0,63,0.02,,,0.04,meteohub,2013-03-12 17:54:00,
2013-03-12 12:59:00,41.5,28.8,29.41,WNW,286,7.0,21.0,60,0.02,,,0.04,meteohub,2013-03-12 17:59:00,
2013-03-12 13:04:00,41.5,29.5,29.41,West,280,6.0,22.0,62,0.02,,,0.04,meteohub,2013-03-12 18:04:00,
2013-03-12 13:09:00,41.4,28.6,29.41,WSW,241,16.0,22.0,60,0.02,,,0.04,meteohub,2013-03-12 18:09:00,
2013-03-12 13:14:00,40.8,28.4,29.42,West,260,6.0,24.0,61,0.02,,,0.04,meteohub,2013-03-12 18:14:00,
2013-03-12 13:19:00,40.5,28.0,29.42,NW,304,11.0,24.0,61,0.02,,,0.04,meteohub,2013-03-12 18:19:00,
2013-03-12 13:24:00,39.9,27.5,29.42,NW,307,3.0,24.0,61,0.03,,,0.05,meteohub,2013-03-12 18:24:00,
2013-03-12 13:29:00,39.7,28.2,29.42,West,261,6.0,27.0,63,0.02,,,0.05,meteohub,2013-03-12 18:29:00,
2013-03-12 13:35:00,39.7,27.9,29.42,West,269,13.0,27.0,62,0.02,,,0.05,meteohub,2013-03-12 18:35:00,
2013-03-12 13:40:00,39.7,28.2,29.42,NW,315,7.0,27.0,63,0.02,,,0.05,meteohub,2013-03-12 18:40:00,
2013-03-12 13:45:00,39.9,28.8,29.42,WSW,239,7.0,23.0,64,0.02,,,0.05,meteohub,2013-03-12 18:45:00,
2013-03-12 13:50:00,39.9,28.8,29.42,WSW,254,8.0,23.0,64,0.02,,,0.05,meteohub,2013-03-12 18:50:00,
2013-03-12 13:55:00,39.7,28.6,29.42,WNW,291,12.0,21.0,64,0.02,,,0.06,meteohub,2013-03-12 18:55:00,
2013-03-12 14:00:00,39.4,28.2,29.42,WSW,247,11.0,18.0,64,0.02,,,0.06,meteohub,2013-03-12 19:00:00,
2013-03-12 14:05:00,39.4,28.9,29.41,WNW,300,4.0,18.0,66,0.02,,,0.06,meteohub,2013-03-12 19:05:00,
2013-03-12 14:10:00,39.4,28.9,29.41,WSW,244,8.0,19.0,66,0.02,,,0.06,meteohub,2013-03-12 19:10:00,
2013-03-12 14:15:00,39.6,29.1,29.41,West,271,9.0,20.0,66,0.02,,,0.06,meteohub,2013-03-12 19:15:00,
2013-03-12 14:20:00,39.6,28.8,29.42,NW,323,6.0,20.0,65,0.02,,,0.06,meteohub,2013-03-12 19:20:00,
2013-03-12 14:25:00,39.6,28.8,29.41,West,279,7.0,22.0,65,0.01,,,0.06,meteohub,2013-03-12 19:25:00,
2013-03-12 14:30:00,39.7,28.6,29.41,WNW,286,7.0,22.0,64,0.01,,,0.06,meteohub,2013-03-12 19:30:00,
2013-03-12 14:35:00,39.4,28.6,29.41,West,281,6.0,22.0,65,0.01,,,0.06,meteohub,2013-03-12 19:35:00,
2013-03-12 14:40:00,39.4,28.9,29.41,West,261,10.0,19.0,66,0.01,,,0.06,meteohub,2013-03-12 19:40:00,
2013-03-12 14:45:00,39.2,29.1,29.41,WNW,300,5.0,17.0,67,0.00,,,0.06,meteohub,2013-03-12 19:45:00,
2013-03-12 14:50:00,39.6,29.1,29.41,WNW,285,11.0,21.0,66,0.01,,,0.07,meteohub,2013-03-12 19:50:00,
2013-03-12 14:55:00,39.7,28.6,29.41,NW,309,16.0,21.0,64,0.01,,,0.07,meteohub,2013-03-12 19:55:00,
2013-03-12 15:00:00,39.6,28.8,29.41,West,275,8.0,21.0,65,0.01,,,0.07,meteohub,2013-03-12 20:00:00,
2013-03-12 15:05:00,39.4,28.2,29.41,West,273,18.0,25.0,64,0.01,,,0.07,meteohub,2013-03-12 20:05:00,
2013-03-12 15:10:00,39.4,28.6,29.41,WNW,298,15.0,25.0,65,0.01,,,0.07,meteohub,2013-03-12 20:10:00,
2013-03-12 15:15:00,39.4,28.2,29.41,West,265,8.0,25.0,64,0.01,,,0.07,meteohub,2013-03-12 20:15:00,
2013-03-12 15:20:00,39.4,27.9,29.41,West,272,15.0,24.0,63,0.01,,,0.07,meteohub,2013-03-12 20:20:00,
2013-03-12 15:25:00,39.4,27.1,29.41,WNW,289,12.0,24.0,61,0.01,,,0.07,meteohub,2013-03-12 20:25:00,
2013-03-12 15:30:00,39.7,26.6,29.41,West,263,10.0,24.0,59,0.01,,,0.07,meteohub,2013-03-12 20:30:00,
2013-03-12 15:35:00,39.9,25.9,29.42,WNW,290,18.0,24.0,57,0.01,,,0.07,meteohub,2013-03-12 20:35:00,
2013-03-12 15:40:00,39.7,25.7,29.42,North,5,9.0,24.0,57,0.01,,,0.07,meteohub,2013-03-12 20:40:00,
2013-03-12 15:45:00,39.7,26.2,29.42,NW,308,11.0,24.0,58,0.02,,,0.08,meteohub,2013-03-12 20:45:00,
2013-03-12 15:51:00,39.7,25.7,29.42,WSW,248,11.0,24.0,57,0.01,,,0.08,meteohub,2013-03-12 20:51:00,
2013-03-12 15:56:00,39.6,25.5,29.42,WNW,286,7.0,24.0,57,0.01,,,0.08,meteohub,2013-03-12 20:56:00,
2013-03-12 16:01:00,39.6,25.2,29.42,WNW,284,18.0,23.0,56,0.01,,,0.08,meteohub,2013-03-12 21:01:00,
2013-03-12 16:06:00,39.6,25.5,29.42,WSW,244,11.0,25.0,57,0.01,,,0.08,meteohub,2013-03-12 21:06:00,
2013-03-12 16:11:00,39.4,25.9,29.42,NNW,332,5.0,25.0,58,0.01,,,0.08,meteohub,2013-03-12 21:11:00,
2013-03-12 16:16:00,39.2,25.7,29.42,West,275,4.0,21.0,58,0.01,,,0.08,meteohub,2013-03-12 21:16:00,
2013-03-12 16:21:00,39.0,25.9,29.43,NW,308,5.0,24.0,59,0.01,,,0.08,meteohub,2013-03-12 21:21:00,
2013-03-12 16:26:00,39.0,25.9,29.43,NW,306,10.0,24.0,59,0.01,,,0.08,meteohub,2013-03-12 21:26:00,
2013-03-12 16:31:00,38.8,26.1,29.43,West,277,12.0,25.0,60,0.01,,,0.08,meteohub,2013-03-12 21:31:00,
2013-03-12 16:37:00,38.7,26.1,29.43,NW,304,15.0,25.0,60,0.01,,,0.08,meteohub,2013-03-12 21:37:00,
2013-03-12 16:42:00,38.3,25.7,29.44,NW,323,2.0,27.0,60,0.00,,,0.08,meteohub,2013-03-12 21:42:00,
2013-03-12 16:47:00,38.1,25.9,29.44,West,278,5.0,27.0,61,0.00,,,0.08,meteohub,2013-03-12 21:47:00,
2013-03-12 16:52:00,38.1,25.9,29.44,West,267,15.0,27.0,61,0.00,,,0.08,meteohub,2013-03-12 21:52:00,
2013-03-12 16:57:00,37.9,26.1,29.44,NW,309,15.0,22.0,62,0.00,,,0.08,meteohub,2013-03-12 21:57:00,
2013-03-12 17:02:00,37.9,26.1,29.44,WNW,293,7.0,22.0,62,0.00,,,0.08,meteohub,2013-03-12 22:02:00,
2013-03-12 17:07:00,37.9,26.1,29.44,West,261,5.0,22.0,62,0.00,,,0.08,meteohub,2013-03-12 22:07:00,
2013-03-12 17:12:00,37.8,25.9,29.43,NW,309,9.0,19.0,62,0.00,,,0.08,meteohub,2013-03-12 22:12:00,
2013-03-12 17:17:00,37.8,26.2,29.44,West,273,11.0,19.0,63,0.00,,,0.08,meteohub,2013-03-12 22:17:00,
2013-03-12 17:23:00,37.6,26.1,29.44,West,266,5.0,25.0,63,0.00,,,0.08,meteohub,2013-03-12 22:23:00,
2013-03-12 17:28:00,37.6,26.1,29.44,WNW,296,14.0,25.0,63,0.00,,,0.08,meteohub,2013-03-12 22:28:00,
2013-03-12 17:33:00,37.6,26.1,29.44,WNW,302,12.0,25.0,63,0.00,,,0.08,meteohub,2013-03-12 22:33:00,
2013-03-12 17:38:00,37.4,26.4,29.44,NW,306,1.0,25.0,64,0.00,,,0.08,meteohub,2013-03-12 22:38:00,
2013-03-12 17:43:00,37.6,27.0,29.45,WNW,297,11.0,25.0,65,0.00,,,0.08,meteohub,2013-03-12 22:43:00,
2013-03-12 17:48:00,37.2,26.6,29.45,West,269,17.0,20.0,65,0.00,,,0.08,meteohub,2013-03-12 22:48:00,
2013-03-12 17:55:00,37.0,26.8,29.45,NW,310,15.0,22.0,66,0.00,,,0.08,meteohub,2013-03-12 22:55:00,
2013-03-12 18:00:00,36.9,27.3,29.45,WNW,283,5.0,22.0,68,0.00,,,0.08,meteohub,2013-03-12 23:00:00,
2013-03-12 18:05:00,36.7,27.5,29.45,NW,323,6.0,20.0,69,0.00,,,0.08,meteohub,2013-03-12 23:05:00,
2013-03-12 18:10:00,36.5,28.0,29.45,NNW,344,5.0,19.0,71,0.00,,,0.08,meteohub,2013-03-12 23:10:00,
2013-03-12 18:15:00,36.1,28.4,29.45,NW,313,3.0,19.0,73,0.00,,,0.08,meteohub,2013-03-12 23:15:00,
2013-03-12 18:20:00,36.0,28.8,29.45,NW,316,5.0,17.0,75,0.00,,,0.08,meteohub,2013-03-12 23:20:00,
2013-03-12 18:25:00,35.8,29.3,29.46,NNW,329,6.0,12.0,77,0.00,,,0.08,meteohub,2013-03-12 23:25:00,
2013-03-12 18:30:00,35.1,29.5,29.46,West,277,10.0,14.0,80,0.00,,,0.08,meteohub,2013-03-12 23:30:00,
2013-03-12 18:35:00,34.3,30.0,29.46,NW,319,6.0,18.0,84,0.00,,,0.08,meteohub,2013-03-12 23:35:00,
2013-03-12 18:40:00,33.6,29.8,29.46,NW,309,11.0,18.0,86,0.00,,,0.08,meteohub,2013-03-12 23:40:00,
2013-03-12 18:45:00,33.4,30.0,29.46,WNW,292,4.0,19.0,87,0.00,,,0.08,meteohub,2013-03-12 23:45:00,
2013-03-12 18:50:00,33.4,30.0,29.46,West,277,10.0,19.0,87,0.00,,,0.08,meteohub,2013-03-12 23:50:00,
2013-03-12 18:55:00,33.4,30.0,29.46,WSW,247,9.0,17.0,87,0.00,,,0.08,meteohub,2013-03-12 23:55:00,
2013-03-12 19:00:00,33.6,29.8,29.46,NW,309,9.0,15.0,86,0.00,,,0.08,meteohub,2013-03-13 00:00:00,
2013-03-12 19:05:00,34.0,29.3,29.46,WSW,244,13.0,14.0,83,0.00,,,0.00,meteohub,2013-03-13 00:05:00,
2013-03-12 19:10:00,34.2,28.9,29.47,NW,309,12.0,17.0,81,0.00,,,0.00,meteohub,2013-03-13 00:10:00,
2013-03-12 19:16:00,34.3,28.2,29.47,NW,325,20.0,21.0,78,0.00,,,0.00,meteohub,2013-03-13 00:16:00,
2013-03-12 19:21:00,34.3,27.3,29.47,NW,306,4.0,24.0,75,0.00,,,0.00,meteohub,2013-03-13 00:21:00,
2013-03-12 19:26:00,34.3,27.5,29.48,NW,311,5.0,28.0,76,0.00,,,0.00,meteohub,2013-03-13 00:26:00,
2013-03-12 19:31:00,34.3,27.5,29.48,WNW,294,2.0,28.0,76,0.00,,,0.00,meteohub,2013-03-13 00:31:00,
2013-03-12 19:36:00,34.2,27.3,29.48,NW,313,12.0,17.0,76,0.00,,,0.00,meteohub,2013-03-13 00:36:00,
2013-03-12 19:42:00,34.2,27.7,29.48,West,279,12.0,15.0,77,0.00,,,0.00,meteohub,2013-03-13 00:42:00,
2013-03-12 19:47:00,34.0,27.1,29.48,WNW,286,12.0,15.0,76,0.00,,,0.00,meteohub,2013-03-13 00:47:00,
2013-03-12 19:52:00,34.0,27.1,29.48,NW,307,5.0,17.0,76,0.00,,,0.00,meteohub,2013-03-13 00:52:00,
2013-03-12 19:57:00,33.8,28.2,29.48,NW,308,12.0,17.0,80,0.00,,,0.00,meteohub,2013-03-13 00:57:00,
2013-03-12 20:02:00,33.6,26.6,29.49,NW,313,18.0,18.0,75,0.00,,,0.00,meteohub,2013-03-13 01:02:00,
2013-03-12 20:07:00,33.6,26.6,29.49,NW,312,12.0,20.0,75,0.00,,,0.00,meteohub,2013-03-13 01:07:00,
2013-03-12 20:12:00,33.4,26.8,29.49,WNW,283,6.0,20.0,76,0.00,,,0.00,meteohub,2013-03-13 01:12:00,
2013-03-12 20:17:00,33.3,26.8,29.49,NW,311,4.0,20.0,77,0.00,,,0.00,meteohub,2013-03-13 01:17:00,
2013-03-12 20:22:00,33.1,27.0,29.49,WNW,296,7.0,19.0,78,0.00,,,0.00,meteohub,2013-03-13 01:22:00,
2013-03-12 20:27:00,33.1,27.3,29.49,West,273,8.0,18.0,79,0.00,,,0.00,meteohub,2013-03-13 01:27:00,
2013-03-12 20:33:00,32.9,26.8,29.49,WNW,298,13.0,14.0,78,0.00,,,0.00,meteohub,2013-03-13 01:33:00,
2013-03-12 20:38:00,32.9,26.2,29.49,WNW,295,6.0,20.0,76,0.00,,,0.00,meteohub,2013-03-13 01:38:00,
2013-03-12 20:42:00,32.9,25.5,29.49,WNW,293,11.0,20.0,74,0.00,,,0.00,meteohub,2013-03-13 01:42:00,
2013-03-12 20:43:00,33.1,25.7,29.50,NW,312,11.0,20.0,74,0.00,,,0.00,meteohub,2013-03-13 01:43:00,
2013-03-12 20:48:00,33.1,25.7,29.50,West,274,16.0,23.0,74,0.00,,,0.00,meteohub,2013-03-13 01:48:00,
2013-03-12 20:53:00,33.1,25.7,29.50,WNW,296,14.0,23.0,74,0.00,,,0.00,meteohub,2013-03-13 01:53:00,
2013-03-12 20:58:00,33.1,25.7,29.50,WNW,287,10.0,24.0,74,0.00,,,0.00,meteohub,2013-03-13 01:58:00,
2013-03-12 21:03:00,33.1,26.1,29.50,North,350,9.0,24.0,75,0.00,,,0.00,meteohub,2013-03-13 02:03:00,
2013-03-12 21:08:00,33.1,26.1,29.51,NNE,22,6.0,24.0,75,0.00,,,0.00,meteohub,2013-03-13 02:08:00,
2013-03-12 21:13:00,32.5,26.4,29.51,WNW,294,13.0,19.0,78,0.00,,,0.00,meteohub,2013-03-13 02:13:00,
2013-03-12 21:18:00,31.8,26.6,29.51,NW,323,3.0,19.0,81,0.00,,,0.00,meteohub,2013-03-13 02:18:00,
2013-03-12 21:23:00,31.3,26.8,29.52,NNW,332,5.0,18.0,83,0.00,,,0.00,meteohub,2013-03-13 02:23:00,
2013-03-12 21:28:00,30.9,27.0,29.52,WNW,300,12.0,18.0,85,0.00,,,0.00,meteohub,2013-03-13 02:28:00,
2013-03-12 21:33:00,30.6,27.0,29.52,NW,309,9.0,18.0,86,0.00,,,0.00,meteohub,2013-03-13 02:33:00,
2013-03-12 21:38:00,30.4,26.8,29.52,North,0,5.0,17.0,86,0.00,,,0.00,meteohub,2013-03-13 02:38:00,
2013-03-12 21:43:00,30.4,27.0,29.52,NW,324,10.0,17.0,87,0.00,,,0.00,meteohub,2013-03-13 02:43:00,
2013-03-12 21:48:00,30.4,27.0,29.52,NNW,333,9.0,16.0,87,0.00,,,0.00,meteohub,2013-03-13 02:48:00,
2013-03-12 21:53:00,30.4,26.8,29.52,NW,325,5.0,16.0,86,0.00,,,0.00,meteohub,2013-03-13 02:53:00,
2013-03-12 21:58:00,30.4,26.4,29.52,NW,311,11.0,16.0,85,0.00,,,0.00,meteohub,2013-03-13 02:58:00,
2013-03-12 22:03:00,30.4,26.4,29.52,WNW,303,12.0,21.0,85,0.00,,,0.00,meteohub,2013-03-13 03:03:00,
2013-03-12 22:08:00,30.2,26.2,29.52,NW,325,11.0,21.0,85,0.00,,,0.00,meteohub,2013-03-13 03:08:00,
2013-03-12 22:13:00,30.4,26.1,29.52,WNW,303,14.0,19.0,84,0.00,,,0.00,meteohub,2013-03-13 03:13:00,
2013-03-12 22:18:00,30.4,25.9,29.52,NNW,345,9.0,19.0,83,0.00,,,0.00,meteohub,2013-03-13 03:18:00,
2013-03-12 22:24:00,30.4,25.9,29.53,NNW,346,10.0,17.0,83,0.00,,,0.00,meteohub,2013-03-13 03:24:00,
2013-03-12 22:29:00,30.4,25.9,29.53,WNW,300,19.0,19.0,83,0.00,,,0.00,meteohub,2013-03-13 03:29:00,
2013-03-12 22:34:00,30.2,25.3,29.53,North,349,4.0,19.0,82,0.00,,,0.00,meteohub,2013-03-13 03:34:00,
2013-03-12 22:39:00,30.0,25.2,29.53,NW,306,12.0,19.0,82,0.00,,,0.00,meteohub,2013-03-13 03:39:00,
2013-03-12 22:44:00,30.0,25.0,29.53,NW,313,15.0,19.0,81,0.00,,,0.00,meteohub,2013-03-13 03:44:00,
2013-03-12 22:49:00,30.0,25.0,29.53,WNW,297,7.0,20.0,81,0.00,,,0.00,meteohub,2013-03-13 03:49:00,
2013-03-12 22:54:00,30.0,25.0,29.54,NW,319,9.0,20.0,81,0.00,,,0.00,meteohub,2013-03-13 03:54:00,
2013-03-12 22:59:00,30.0,25.0,29.54,WNW,298,10.0,26.0,81,0.00,,,0.00,meteohub,2013-03-13 03:59:00,
2013-03-12 23:00:00,30.0,25.0,29.54,NNW,327,3.0,26.0,81,0.00,,,0.00,meteohub,2013-03-13 04:00:00,
2013-03-12 23:05:00,29.8,24.4,29.54,NW,324,3.0,26.0,80,0.00,,,0.00,meteohub,2013-03-13 04:05:00,
2013-03-12 23:10:00,29.8,24.4,29.53,West,267,6.0,23.0,80,0.00,,,0.00,meteohub,2013-03-13 04:10:00,
2013-03-12 23:15:00,29.8,24.1,29.54,NW,320,11.0,23.0,79,0.00,,,0.00,meteohub,2013-03-13 04:15:00,
2013-03-12 23:20:00,29.8,24.1,29.54,NNW,331,4.0,19.0,79,0.00,,,0.00,meteohub,2013-03-13 04:20:00,
2013-03-12 23:25:00,29.8,24.1,29.54,West,271,10.0,19.0,79,0.00,,,0.00,meteohub,2013-03-13 04:25:00,
2013-03-12 23:30:00,29.7,23.9,29.54,NNW,344,6.0,17.0,79,0.00,,,0.00,meteohub,2013-03-13 04:30:00,
2013-03-12 23:35:00,29.7,23.4,29.54,NW,313,2.0,19.0,77,0.00,,,0.00,meteohub,2013-03-13 04:35:00,
2013-03-12 23:40:00,29.7,22.6,29.54,NW,304,15.0,20.0,75,0.00,,,0.00,meteohub,2013-03-13 04:40:00,
2013-03-12 23:45:00,29.5,22.5,29.55,NW,325,4.0,22.0,75,0.00,,,0.00,meteohub,2013-03-13 04:45:00,
2013-03-12 23:50:00,29.5,22.5,29.54,NW,313,10.0,22.0,75,0.00,,,0.00,meteohub,2013-03-13 04:50:00,
2013-03-12 23:55:00,29.5,22.8,29.55,WNW,298,8.0,22.0,76,0.00,,,0.00,meteohub,2013-03-13 04:55:00,